Location: Northcutt
(34.7304°N, 84.4305°W)
Time: 13:03:05
(UTC+00:00)

Vanguard 2 Rocket - All Passes

Search period start: 05 October 2022 00:00
Search period end: 15 October 2022 00:00
Orbit: 553 x 3323 km, 32.9° (Epoch: 04 October)

Date Brightness Start Highest point End Pass type
(mag) Time Alt. Az. Time Alt. Az. Time Alt. Az.
05 Oct - 01:42:25 10° SW 01:59:55 43° SSE 02:11:56 10° E visible
05 Oct - 03:59:28 10° WSW 04:16:12 71° SSE 04:25:41 10° E visible
05 Oct - 06:18:45 10° W 06:31:17 80° S 06:38:05 10° E night (unlit)
05 Oct - 08:36:54 10° W 08:44:38 43° SSW 08:49:26 10° SE visible
05 Oct - 22:36:53 10° SSE 22:41:22 11° SE 22:45:43 10° ESE daylight
06 Oct - 00:41:06 10° SSW 00:57:58 35° SSE 01:10:53 10° E visible
06 Oct - 02:56:31 10° SW 03:14:40 63° SSE 03:25:44 10° E visible
06 Oct - 05:15:36 10° W 05:30:30 82° S 05:38:36 10° E visible
06 Oct - 07:34:36 10° W 07:44:45 61° SSW 07:50:28 10° ESE night (unlit)
06 Oct - 09:53:03 10° WSW 09:56:44 16° SW 09:59:44 10° S visible
06 Oct - 23:40:46 10° SSW 23:55:58 27° SE 00:08:54 10° E visible
07 Oct - 01:54:00 10° SW 02:12:49 55° SSE 02:25:26 10° E visible
07 Oct - 04:12:16 10° WSW 04:29:18 79° S 04:38:55 10° E visible
07 Oct - 06:31:52 10° W 06:44:26 75° SSW 06:51:15 10° ESE night (unlit)
07 Oct - 08:50:20 10° W 08:57:19 30° SW 09:01:56 10° SSE visible
07 Oct - 22:41:51 10° S 22:54:01 20° SE 23:05:23 10° E daylight
08 Oct - 00:52:08 10° SW 01:10:43 47° SSE 01:24:40 10° E visible
08 Oct - 03:09:00 10° WSW 03:27:42 74° SSE 03:38:59 10° E visible
08 Oct - 05:28:41 10° W 05:43:40 81° S 05:51:48 10° E visible
08 Oct - 07:47:48 10° W 07:57:36 47° SSW 08:03:19 10° SE night (unlit)
08 Oct - 21:46:23 10° SSE 21:52:14 12° SE 21:58:03 10° ESE daylight
08 Oct - 23:51:05 10° SSW 00:08:33 38° SE 00:23:14 10° E visible
09 Oct - 02:06:07 10° WSW 02:25:43 66° SSE 02:38:44 10° E visible
09 Oct - 04:25:15 10° W 04:42:27 83° S 04:52:08 10° E visible
09 Oct - 06:44:58 10° W 06:57:26 64° SSW 07:04:18 10° ESE night (unlit)
09 Oct - 09:04:14 10° W 09:09:45 19° SW 09:13:46 10° S visible
09 Oct - 22:51:03 10° S 23:06:28 29° SE 23:20:50 10° E daylight
10 Oct - 01:03:50 10° SW 01:23:29 58° SSE 01:38:06 10° E visible
10 Oct - 03:21:49 10° WSW 03:40:46 81° S 03:52:11 10° E visible
10 Oct - 05:41:47 10° W 05:56:47 76° SSW 06:04:58 10° ESE visible
10 Oct - 08:01:09 10° W 08:10:12 34° SW 08:15:48 10° SSE night (unlit)
10 Oct - 21:52:26 10° S 22:04:37 20° SE 22:16:51 10° E daylight
11 Oct - 00:02:17 10° SW 00:21:07 49° SSE 00:36:55 10° E visible
11 Oct - 02:18:40 10° WSW 02:38:41 76° SSE 02:51:58 10° E visible
11 Oct - 04:38:19 10° W 04:55:36 82° S 05:05:19 10° E visible
11 Oct - 06:58:06 10° W 07:10:14 51° SSW 07:17:07 10° SE night (unlit)
11 Oct - 09:19:50 10° WSW 09:21:58 11° SW 09:23:51 10° SSW night (unlit)
11 Oct - 20:57:14 10° SSE 21:03:02 12° SE 21:09:00 10° ESE daylight
11 Oct - 23:01:36 10° SSW 23:18:50 39° SE 23:35:03 10° E visible
12 Oct - 01:16:03 10° WSW 01:36:17 69° SSE 01:51:20 10° E visible
12 Oct - 03:34:48 10° W 03:53:54 84° S 04:05:24 10° E visible
12 Oct - 05:54:52 10° W 06:09:45 66° SSW 06:17:58 10° ESE visible
12 Oct - 08:14:54 10° W 08:22:32 23° SW 08:27:45 10° S night (unlit)
12 Oct - 22:01:55 10° S 22:16:49 30° SE 22:32:09 10° E daylight
13 Oct - 00:14:07 10° SW 00:33:43 60° SSE 00:50:17 10° E visible
13 Oct - 02:31:30 10° WSW 02:51:44 82° S 03:05:09 10° E visible
13 Oct - 04:51:24 10° W 05:08:40 77° SSW 05:18:27 10° ESE visible
13 Oct - 07:11:23 10° W 07:22:46 38° SW 07:29:36 10° SSE night (unlit)
13 Oct - 21:03:40 10° S 21:15:10 20° SE 21:27:37 10° E daylight
13 Oct - 23:12:58 10° SW 23:31:13 50° SSE 23:48:38 10° E visible
14 Oct - 01:28:38 10° WSW 01:49:11 77° SSE 02:04:31 10° E visible
14 Oct - 03:47:53 10° W 04:07:01 83° S 04:18:35 10° E visible
14 Oct - 06:07:58 10° W 06:22:29 54° SSW 06:30:46 10° SE visible
14 Oct - 08:29:42 10° W 08:34:38 15° SW 08:38:32 10° SSW night (unlit)
14 Oct - 20:09:13 10° SE 20:13:53 11° SE 20:18:48 10° ESE daylight
14 Oct - 22:12:41 10° SSW 22:29:00 40° SE 22:46:16 10° E daylight
